EW7665 Weather Reports


Display with metric or nautical units.
time (UTC)temp
F
wind
direction
speed
MPH
gust
MPH
rain 1hr
in
rain 24hr
in
rain mn
in
humidity
%
barometer
mb
20260504044548 63 0 0.0 1.0 0.00 0.00 0.00 63 1006.0
20260504043105 63 74 0.0 1.0 0.00 0.00 0.00 60 1006.0
20260504041553 63 82 1.0 2.0 0.00 0.00 0.00 60 1006.0
20260504040055 64 0 0.0 0.0 0.00 0.00 0.00 60 1006.5
20260504034608 65 0 0.0 0.0 0.00 0.00 0.00 55 1006.9
20260504033057 67 80 1.0 2.0 0.00 0.00 0.00 55 1007.0
20260504031601 67 128 0.0 0.0 0.00 0.00 0.00 55 1007.0
20260504030113 69 75 0.0 0.0 0.00 0.00 0.00 48 1007.0
20260504024554 70 0 0.0 0.0 0.00 0.00 0.00 48 1007.0
20260504023051 70 84 0.0 0.0 0.00 0.00 0.00 48 1006.6
20260504021600 71 119 1.0 2.0 0.00 0.00 0.00 47 1006.2
20260504020051 70 0 0.0 0.0 0.00 0.00 0.00 47 1006.3
20260504014552 72 0 0.0 2.0 0.00 0.00 0.00 47 1006.1
20260504013115 72 78 0.0 1.0 0.00 0.00 0.00 42 1006.2
20260504011549 73 84 1.0 1.0 0.00 0.00 0.00 42 1006.2
20260504010051 75 80 1.0 1.0 0.00 0.00 0.00 42 1006.3
20260504004549 75 92 2.0 2.0 0.00 0.00 0.00 40 1006.4
20260504003047 76 78 2.0 3.0 0.00 0.00 0.00 40 1006.6
20260504001549 77 59 2.0 2.0 0.00 0.00 0.00 36 1006.8
20260504000129 79 80 2.0 2.0 0.00 0.00 0.00 36 1006.9
20260503234550 79 90 1.0 1.0 0.00 0.00 0.00 36 1007.0
20260503233051 79 75 0.0 2.0 0.00 0.00 0.00 28 1007.0
20260503231552 80 38 0.0 1.0 0.00 0.00 0.00 28 1007.2
20260503230054 81 89 3.0 3.0 0.00 0.00 0.00 28 1007.3
20260503224551 81 284 0.0 0.0 0.00 0.00 0.00 25 1007.4
20260503223053 82 0 0.0 1.0 0.00 0.00 0.00 25 1007.5
20260503221549 82 295 0.0 3.0 0.00 0.00 0.00 25 1007.7
20260503220051 82 53 2.0 5.0 0.00 0.00 0.00 26 1007.8
20260503214551 83 259 4.0 4.0 0.00 0.00 0.00 26 1008.0
20260503213051 83 190 0.0 3.0 0.00 0.00 0.00 26 1008.0
20260503211551 82 294 3.0 5.0 0.00 0.00 0.00 29 1008.3
20260503210050 82 71 1.0 6.0 0.00 0.00 0.00 29 1008.5
20260503204548 82 290 3.0 3.0 0.00 0.00 0.00 29 1008.7
20260503203052 81 281 3.0 4.0 0.00 0.00 0.00 32 1009.1
20260503201550 81 273 3.0 4.0 0.00 0.00 0.00 32 1009.4
20260503200053 80 290 2.0 6.0 0.00 0.00 0.00 32 1009.8
20260503194555 80 319 2.0 4.0 0.00 0.00 0.00 38 1009.9
20260503193056 79 227 6.0 6.0 0.00 0.00 0.00 38 1010.1
20260503191549 79 351 2.0 3.0 0.00 0.00 0.00 38 1010.3
20260503190047 78 269 4.0 4.0 0.00 0.00 0.00 37 1010.6
20260503184610 77 285 1.0 3.0 0.00 0.00 0.00 37 1010.9
20260503183055 76 266 1.0 4.0 0.00 0.00 0.00 37 1011.0
20260503181554 76 263 4.0 4.0 0.00 0.00 0.00 40 1011.3
20260503180049 75 284 4.0 11.0 0.00 0.00 0.00 40 1011.5
20260503174552 74 232 4.0 10.0 0.00 0.00 0.00 40 1011.9
20260503173050 74 276 4.0 8.0 0.00 0.00 0.00 41 1012.1
20260503171609 73 275 4.0 6.0 0.00 0.00 0.00 41 1012.0
20260503081551 53 0 0.0 3.0 0.00 0.00 0.00 55 1014.5
20260503080107 50 213 1.0 1.0 0.00 0.00 0.00 55 1014.7
20260503071607 52 0 0.0 0.0 0.00 0.00 0.00 47 1015.1
20260503054600 53 117 1.0 1.0 0.00 0.00 0.00 60 1015.7